Hourly Data Report for April 27, 2021

NANAIMO A
BRITISH COLUMBIA
Current Station Operator: NAVCAN

49°03'16.000" N
123°52'12.000" W
28.00 m
1025365
YCD

Download Data

Hourly Data (April 2021)
Hourly Data Report for April 27, 2021
TIME
LST
Temp Definition
°C
Dew Point Definition
°C
Rel Hum Definition
%
Precip. Amount Definition
mm

Wind Dir Definition
10's deg

Wind Spd Definition
km/h
Visibility Definition
km
Stn Press Definition
kPa
Hmdx Definition


Wind Chill Definition


Weather Definition


00:00 8.7 4.9 77 LegendMM 25 10 LegendMM 101.34     LegendNANA
01:00 8.1 4.4 77 LegendMM 23 9 LegendMM 101.33     LegendNANA
02:00 7.0 4.0 81 LegendMM 25 9 LegendMM 101.39     LegendNANA
03:00 6.9 3.8 81 LegendMM 25 11 LegendMM 101.43     LegendNANA
04:00 6.7 3.5 80 LegendMM 25 9 LegendMM 101.47     LegendNANA
05:00 6.6 3.5 81 LegendMM 26 12 LegendMM 101.52     LegendNANA
06:00 7.0 3.6 78 LegendMM 26 12 LegendMM 101.55     LegendNANA
07:00 8.2 4.2 76 LegendMM 24 9 LegendMM 101.57     LegendNANA
08:00 10.9 5.6 69 LegendMM 15 8 LegendMM 101.60     LegendNANA
09:00 11.8 5.8 67 LegendMM 15 12 LegendMM 101.61     LegendNANA
10:00 13.0 6.7 65 LegendMM 13 4 LegendMM 101.64     LegendNANA
11:00 13.6 5.9 60 LegendMM 9 10 LegendMM 101.67     LegendNANA
12:00 14.1 6.5 60 LegendMM 6 11 LegendMM 101.71     LegendNANA
13:00 13.4 6.4 62 LegendMM 8 7 LegendMM 101.75     LegendNANA
14:00 13.7 6.5 62 LegendMM 8 9 LegendMM 101.77     LegendNANA
15:00 13.4 6.7 64 LegendMM 34 12 LegendMM 101.80     LegendNANA
16:00 14.8 3.6 47 LegendMM 20 14 LegendMM 101.79     LegendNANA
17:00 13.6 4.1 52 LegendMM 22 16 LegendMM 101.82     LegendNANA
18:00 13.0 4.3 55 LegendMM 24 10 LegendMM 101.86     LegendNANA
19:00 12.6 4.4 57 LegendMM 24 8 LegendMM 101.87     LegendNANA
20:00 11.7 5.0 63 LegendMM 29 8 LegendMM 101.94     LegendNANA
21:00 11.6 4.8 63 LegendMM 27 9 LegendMM 101.97     LegendNANA
22:00 11.3 5.2 66 LegendMM 24 7 LegendMM 102.00     LegendNANA
23:00 11.3 5.2 66 LegendMM 29 8 LegendMM 102.02     LegendNANA

Notes on Data Quality.

Legend

  • E = Estimated
  • M = Missing
  • NA = Not Available*
  • [empty] = Indicates an unobserved value
Date modified: